CT1ETE Weather Reports


time (UTC)temp
C
wind
direction
speed
KPH
gust
KPH
rain 1hr
cm
rain 24hr
cm
rain mn
cm
humidity
%
barometer
mb
20260906232029 18 122 1.6 6.4 0.00 0.00 0.00 82 1023.8
20260906230527 19 122 4.8 6.4 0.00 0.00 0.00 81 1023.8
20260906225025 18 122 4.8 6.4 0.00 0.00 0.00 82 1023.8
20260906224219 18 122 3.2 6.4 0.00 0.00 0.00 83 1023.9
20260906222721 18 122 3.2 6.4 0.00 0.00 0.00 84 1023.9
20260906221222 18 225 3.2 4.8 0.00 0.00 0.00 83 1023.8
20260906215022 18 225 1.6 3.2 0.00 0.00 0.00 83 1023.8
20260906213523 19 225 1.6 4.8 0.00 0.00 0.00 82 1023.7
20260906212023 19 225 1.6 3.2 0.00 0.00 0.00 81 1023.8
20260906210523 19 225 0.0 3.2 0.00 0.00 0.00 81 1023.7
20260906205023 20 225 0.0 3.2 0.00 0.00 0.00 81 1023.6
20260906203523 20 225 1.6 3.2 0.00 0.00 0.00 80 1023.6
20260906202023 20 225 1.6 4.8 0.00 0.00 0.00 79 1023.5
20260906200522 20 225 1.6 4.8 0.00 0.00 0.00 78 1023.2
20260906195023 21 225 3.2 9.7 0.00 0.00 0.00 77 1023.1
20260906193522 21 227 8.0 14.5 0.00 0.00 0.00 75 1022.9
20260906192022 22 236 11.3 16.1 0.00 0.00 0.00 71 1022.8
20260906190523 22 250 11.3 16.1 0.00 0.00 0.00 69 1022.7
20260906185716 23 229 8.0 16.1 0.00 0.00 0.00 67 1022.6
20260906183522 24 211 8.0 16.1 0.00 0.00 0.00 64 1022.6
20260906182735 25 242 12.9 17.7 0.00 0.00 0.00 60 1022.6
20260906180520 25 220 11.3 16.1 0.00 0.00 0.00 59 1022.6
20260906175015 26 197 9.7 16.1 0.00 0.00 0.00 58 1022.6
20260906173514 26 249 11.3 17.7 0.00 0.00 0.00 56 1022.5
20260906172014 26 248 14.5 19.3 0.00 0.00 0.00 56 1022.5
20260906170515 26 275 16.1 20.9 0.00 0.00 0.00 55 1022.5
20260906165014 27 223 17.7 24.1 0.00 0.00 0.00 55 1022.5
20260906163516 27 241 17.7 25.7 0.00 0.00 0.00 54 1022.5
20260906162701 27 236 12.9 24.1 0.00 0.00 0.00 55 1022.4
20260906160510 27 260 17.7 25.7 0.00 0.00 0.00 55 1022.3
20260906155010 28 260 14.5 25.7 0.00 0.00 0.00 53 1022.2
20260906153508 28 233 16.1 22.5 0.00 0.00 0.00 53 1022.2
20260906152008 28 254 14.5 22.5 0.00 0.00 0.00 53 1022.2
20260906150507 28 243 12.9 22.5 0.00 0.00 0.00 52 1022.2
20260906145003 28 235 9.7 20.9 0.00 0.00 0.00 53 1022.2
20260906144208 28 235 11.3 20.9 0.00 0.00 0.00 54 1022.5
20260906142700 28 248 12.9 22.5 0.00 0.00 0.00 56 1022.6
20260906140502 28 227 11.3 20.9 0.00 0.00 0.00 56 1022.6
20260906135002 27 250 16.1 24.1 0.00 0.00 0.00 57 1022.7
20260906133502 27 259 14.5 22.5 0.00 0.00 0.00 60 1022.6
20260906131958 27 234 14.5 24.1 0.00 0.00 0.00 61 1022.6
20260906130458 27 223 11.3 19.3 0.00 0.00 0.00 59 1022.4
20260906124958 27 225 14.5 22.5 0.00 0.00 0.00 59 1022.4
20260906123456 26 227 17.7 24.1 0.00 0.00 0.00 61 1022.6
20260906121956 26 239 14.5 24.1 0.00 0.00 0.00 65 1022.5
20260906120459 26 254 14.5 20.9 0.00 0.00 0.00 66 1022.4
20260906115642 26 222 12.9 19.3 0.00 0.00 0.00 68 1022.4
20260906113453 26 232 12.9 19.3 0.00 0.00 0.00 67 1022.4
20260906111959 26 227 12.9 20.9 0.00 0.00 0.00 68 1022.4
20260906110450 26 226 9.7 19.3 0.00 0.00 0.00 68 1022.5
20260906104953 26 242 9.7 16.1 0.00 0.00 0.00 68 1022.4
20260906103447 25 238 8.0 12.9 0.00 0.00 0.00 68 1022.4
20260906101952 25 238 4.8 12.9 0.00 0.00 0.00 70 1022.4
20260906100448 24 267 4.8 11.3 0.00 0.00 0.00 72 1022.4
20260906094951 24 245 4.8 12.9 0.00 0.00 0.00 72 1022.3
20260906093448 23 273 4.8 16.1 0.00 0.00 0.00 73 1022.2
20260906091951 23 244 11.3 17.7 0.00 0.00 0.00 74 1022.3
20260906090447 23 236 12.9 19.3 0.00 0.00 0.00 75 1022.2
20260906084947 22 248 11.3 17.7 0.00 0.00 0.00 74 1022.0
20260906083447 23 230 12.9 17.7 0.00 0.00 0.00 73 1021.7
20260906082649 23 244 4.8 11.3 0.00 0.00 0.00 74 1021.6
20260906080441 23 232 3.2 8.0 0.00 0.00 0.00 73 1021.3
20260906075630 22 232 1.6 6.4 0.00 0.00 0.00 74 1021.2
20260906073441 22 105 3.2 6.4 0.00 0.00 0.00 76 1021.1
20260906071940 21 217 3.2 4.8 0.00 0.00 0.00 75 1020.9
20260906070439 21 218 0.0 4.8 0.00 0.00 0.00 76 1020.8
20260906064939 21 218 1.6 4.8 0.00 0.00 0.00 76 1020.8
20260906064817 21 218 0.0 3.2 0.00 0.00 0.00 75 1020.6
20260906062646 21 218 0.0 3.2 0.00 0.00 0.00 74 1020.4
20260906061137 21 218 3.2 4.8 0.00 0.00 0.00 73 1020.4
20260906054935 22 218 1.6 4.8 0.00 0.00 0.00 71 1020.1
20260906053435 22 218 0.0 8.0 0.00 0.00 0.00 72 1020.0
20260906051933 22 215 1.6 9.7 0.00 0.00 0.00 70 1019.8
20260906050433 22 92 4.8 9.7 0.00 0.00 0.00 70 1019.5
20260906044933 22 91 4.8 9.7 0.00 0.00 0.00 70 1019.5
20260906043433 22 90 6.4 11.3 0.00 0.00 0.00 68 1019.6
20260906041933 23 123 3.2 4.8 0.00 0.00 0.00 66 1019.6
20260906040433 22 124 3.2 9.7 0.00 0.00 0.00 67 1019.7
20260906035636 22 98 1.6 6.4 0.00 0.00 0.00 67 1019.6
20260906033432 23 98 4.8 9.7 0.00 0.00 0.00 66 1019.5
20260906031933 23 101 4.8 11.3 0.00 0.00 0.00 66 1019.6
20260906030431 23 178 1.6 6.4 0.00 0.00 0.00 69 1019.6
20260906024931 23 165 0.0 6.4 0.00 0.00 0.00 68 1019.6
20260906023431 23 165 0.0 6.4 0.00 0.00 0.00 67 1019.6
20260906021928 23 121 3.2 6.4 0.00 0.00 0.00 65 1019.8
20260906021117 23 116 3.2 9.7 0.00 0.00 0.00 66 1019.8
20260906014927 23 161 1.6 6.4 0.00 0.00 0.00 66 1019.8
20260906013424 23 161 1.6 8.0 0.00 0.00 0.00 66 1019.9
20260906011924 23 131 6.4 11.3 0.00 0.00 0.00 67 1020.0
20260906010425 23 226 1.6 4.8 0.00 0.00 0.00 68 1020.0
20260906005623 23 226 1.6 3.2 0.00 0.00 0.00 68 1020.0
20260906003424 23 226 1.6 4.8 0.00 0.00 0.00 66 1020.2
20260906001925 23 226 1.6 3.2 0.00 0.00 0.00 65 1020.0
20260906000425 24 226 4.8 8.0 0.00 0.00 0.00 66 1020.2
20260905235623 24 226 3.2 6.4 0.00 0.00 0.00 64 1020.2
20260905233425 25 226 6.4 8.0 0.00 0.00 0.00 62 1020.2